Location: ???????
(55.4362°N, 38.1183°E)
Time: 01:52:35
(UTC+00:00)

Meteor 2-5 Rocket - Pass Details

Date: 17 June 2021
Orbit: 833 x 911 km, 81.2° (Epoch: 26 July)

Event Time Altitude Azimuth Distance (km) Brightness Sun altitude
Exits shadow 20:36:20 - 212° (SSW) 3,067 6.2 -10.4°
Reaches altitude 10° 20:37:59 10° 216° (SW) 2,449 5.7 -10.4°
Maximum altitude 20:43:22 51° 292° (WNW) 1,059 4.5 -10.6°
Drops below altitude 10° 20:48:53 10° 8° (N) 2,499 7.5 -10.7°
Sets 20:51:25 0° 14° (NNE) 3,451 8.3 -10.8°
